Time,TemperatureF,DewpointF,PressureIn,WindDirection,WindDirectionDegrees,WindSpeedMPH,WindSpeedGustMPH,Humidity,HourlyPrecipIn,Conditions,Clouds,dailyrainin,SoftwareType,DateUTC
2013-02-22 00:29:00,15.4,13.0,30.05,ENE,60,0.0,3.0,88,0.00,,,0.00,weatherlink.com 1.10,2013-02-22 07:29:00,
2013-02-22 00:44:00,15.1,12.0,30.05,ENE,60,0.0,3.0,87,0.00,,,0.00,weatherlink.com 1.10,2013-02-22 07:44:00,
2013-02-22 00:59:00,15.4,13.0,30.05,ENE,60,0.0,0.0,88,0.00,,,0.00,weatherlink.com 1.10,2013-02-22 07:59:00,
2013-02-22 01:14:00,16.7,14.0,30.06,ENE,60,4.0,5.0,89,0.00,,,0.00,weatherlink.com 1.10,2013-02-22 08:14:00,
2013-02-22 01:29:00,16.8,14.0,30.05,ENE,60,2.0,4.0,88,0.00,,,0.00,weatherlink.com 1.10,2013-02-22 08:29:00,
2013-02-22 01:44:00,17.3,15.0,30.06,ENE,60,0.0,4.0,89,0.00,,,0.00,weatherlink.com 1.10,2013-02-22 08:44:00,
2013-02-22 01:59:00,17.2,15.0,30.06,ENE,60,3.0,3.0,89,0.00,,,0.00,weatherlink.com 1.10,2013-02-22 08:59:00,
2013-02-22 02:14:00,17.5,15.0,30.06,ENE,60,0.0,3.0,89,0.00,,,0.00,weatherlink.com 1.10,2013-02-22 09:14:00,
2013-02-22 02:29:00,17.8,15.0,30.06,ENE,60,1.0,2.0,89,0.00,,,0.00,weatherlink.com 1.10,2013-02-22 09:29:00,
2013-02-22 02:44:00,17.9,15.0,30.06,ENE,60,0.0,5.0,89,0.00,,,0.00,weatherlink.com 1.10,2013-02-22 09:44:00,
2013-02-22 02:59:00,17.9,15.0,30.06,ENE,60,0.0,2.0,89,0.00,,,0.00,weatherlink.com 1.10,2013-02-22 09:59:00,
2013-02-22 03:14:00,17.9,15.0,30.06,ENE,60,0.0,3.0,89,0.00,,,0.00,weatherlink.com 1.10,2013-02-22 10:14:00,
2013-02-22 03:29:00,17.7,15.0,30.06,ENE,60,0.0,1.0,88,0.00,,,0.00,weatherlink.com 1.10,2013-02-22 10:29:00,
2013-02-22 03:44:00,17.5,15.0,30.06,ENE,60,0.0,2.0,88,0.00,,,0.00,weatherlink.com 1.10,2013-02-22 10:44:00,
2013-02-22 03:59:00,17.5,15.0,30.07,ENE,60,3.0,4.0,88,0.00,,,0.00,weatherlink.com 1.10,2013-02-22 10:59:00,
2013-02-22 04:14:00,17.1,14.0,30.07,ENE,60,3.0,3.0,88,0.00,,,0.00,weatherlink.com 1.10,2013-02-22 11:14:00,
2013-02-22 04:29:00,16.7,14.0,30.07,ENE,60,1.0,3.0,88,0.00,,,0.00,weatherlink.com 1.10,2013-02-22 11:29:00,
2013-02-22 04:44:00,17.0,14.0,30.07,ENE,60,2.0,3.0,89,0.00,,,0.00,weatherlink.com 1.10,2013-02-22 11:44:00,
2013-02-22 04:59:00,17.3,14.0,30.07,ENE,60,0.0,3.0,88,0.00,,,0.00,weatherlink.com 1.10,2013-02-22 11:59:00,
2013-02-22 05:14:00,16.7,14.0,30.07,ENE,60,3.0,5.0,87,0.00,,,0.00,weatherlink.com 1.10,2013-02-22 12:14:00,
2013-02-22 05:29:00,15.2,12.0,30.07,ENE,60,0.0,5.0,87,0.00,,,0.00,weatherlink.com 1.10,2013-02-22 12:29:00,
2013-02-22 05:44:00,14.9,12.0,30.08,ENE,60,0.0,0.0,88,0.00,,,0.00,weatherlink.com 1.10,2013-02-22 12:44:00,
2013-02-22 05:59:00,14.6,11.0,30.08,ENE,60,2.0,2.0,87,0.00,,,0.00,weatherlink.com 1.10,2013-02-22 12:59:00,
2013-02-22 06:14:00,14.2,11.0,30.08,ENE,60,3.0,4.0,87,0.00,,,0.00,weatherlink.com 1.10,2013-02-22 13:14:00,
2013-02-22 06:29:00,14.9,12.0,30.08,ENE,60,2.0,2.0,89,0.00,,,0.00,weatherlink.com 1.10,2013-02-22 13:29:00,
2013-02-22 06:45:00,15.1,12.0,30.09,ENE,60,0.0,0.0,88,0.00,,,0.00,weatherlink.com 1.10,2013-02-22 13:45:00,
2013-02-22 06:59:00,15.5,13.0,30.09,ENE,60,0.0,0.0,89,0.00,,,0.00,weatherlink.com 1.10,2013-02-22 13:59:00,
2013-02-22 07:14:00,15.9,13.0,30.09,ENE,60,0.0,0.0,89,0.00,,,0.00,weatherlink.com 1.10,2013-02-22 14:14:00,
2013-02-22 07:29:00,15.3,12.0,30.09,ENE,60,3.0,4.0,87,0.00,,,0.00,weatherlink.com 1.10,2013-02-22 14:29:00,
2013-02-22 07:44:00,15.1,12.0,30.10,ENE,60,0.0,4.0,87,0.00,,,0.00,weatherlink.com 1.10,2013-02-22 14:44:00,
2013-02-22 08:00:00,16.5,14.0,30.10,ENE,60,0.0,3.0,88,0.00,,,0.00,weatherlink.com 1.10,2013-02-22 15:00:00,
2013-02-22 08:15:00,18.5,16.0,30.11,ENE,60,0.0,0.0,88,0.00,,,0.00,weatherlink.com 1.10,2013-02-22 15:15:00,
2013-02-22 08:30:00,21.4,18.0,30.11,ENE,60,0.0,2.0,85,0.00,,,0.00,weatherlink.com 1.10,2013-02-22 15:30:00,
2013-02-22 08:45:00,23.3,17.0,30.11,ENE,60,2.0,3.0,78,0.00,,,0.00,weatherlink.com 1.10,2013-02-22 15:45:00,
2013-02-22 09:00:00,22.5,17.0,30.12,ENE,60,2.0,6.0,79,0.00,,,0.00,weatherlink.com 1.10,2013-02-22 16:00:00,
2013-02-22 09:15:00,22.6,16.0,30.11,ENE,60,3.0,6.0,76,0.00,,,0.00,weatherlink.com 1.10,2013-02-22 16:15:00,
2013-02-22 09:30:00,23.5,17.0,30.11,ENE,60,2.0,4.0,76,0.00,,,0.00,weatherlink.com 1.10,2013-02-22 16:30:00,
2013-02-22 09:45:00,23.8,17.0,30.11,ENE,60,3.0,6.0,75,0.00,,,0.00,weatherlink.com 1.10,2013-02-22 16:45:00,
2013-02-22 10:00:00,24.4,17.0,30.11,ENE,60,1.0,4.0,74,0.00,,,0.00,weatherlink.com 1.10,2013-02-22 17:00:00,
2013-02-22 10:15:00,25.7,18.0,30.10,ENE,60,2.0,6.0,71,0.00,,,0.00,weatherlink.com 1.10,2013-02-22 17:15:00,
2013-02-22 10:30:00,26.3,18.0,30.09,ENE,60,4.0,7.0,70,0.00,,,0.00,weatherlink.com 1.10,2013-02-22 17:30:00,
2013-02-22 10:45:00,27.5,18.0,30.09,ENE,60,5.0,7.0,68,0.00,,,0.00,weatherlink.com 1.10,2013-02-22 17:45:00,
2013-02-22 11:00:00,28.6,18.0,30.08,ENE,60,0.0,7.0,65,0.00,,,0.00,weatherlink.com 1.10,2013-02-22 18:00:00,
2013-02-22 11:15:00,29.8,19.0,30.08,ENE,59,7.0,8.0,64,0.00,,,0.00,weatherlink.com 1.10,2013-02-22 18:15:00,
2013-02-22 11:30:00,31.0,19.0,30.07,NE,43,4.0,9.0,61,0.00,,,0.00,weatherlink.com 1.10,2013-02-22 18:30:00,
2013-02-22 11:46:00,32.4,19.0,30.07,NE,43,4.0,8.0,59,0.00,,,0.00,weatherlink.com 1.10,2013-02-22 18:46:00,
2013-02-22 12:00:00,33.4,19.0,30.06,NE,43,5.0,8.0,57,0.00,,,0.00,weatherlink.com 1.10,2013-02-22 19:00:00,
2013-02-22 12:15:00,34.3,20.0,30.05,NE,42,5.0,9.0,55,0.00,,,0.00,weatherlink.com 1.10,2013-02-22 19:15:00,
2013-02-22 12:30:00,35.9,20.0,30.04,NE,39,7.0,11.0,53,0.00,,,0.00,weatherlink.com 1.10,2013-02-22 19:30:00,
2013-02-22 12:46:00,36.1,19.0,30.02,NNE,33,7.0,12.0,51,0.00,,,0.00,weatherlink.com 1.10,2013-02-22 19:46:00,
2013-02-22 13:00:00,37.4,17.0,30.01,NNE,32,6.0,9.0,43,0.00,,,0.00,weatherlink.com 1.10,2013-02-22 20:00:00,
2013-02-22 13:16:00,37.9,14.0,29.99,East,85,3.0,9.0,37,0.00,,,0.00,weatherlink.com 1.10,2013-02-22 20:16:00,
2013-02-22 13:31:00,38.9,14.0,29.98,South,185,5.0,10.0,36,0.00,,,0.00,weatherlink.com 1.10,2013-02-22 20:31:00,
2013-02-22 13:46:00,40.0,9.0,29.96,South,187,16.0,21.0,28,0.00,,,0.00,weatherlink.com 1.10,2013-02-22 20:46:00,
2013-02-22 14:16:00,40.0,10.0,29.95,SW,230,14.0,22.0,29,0.00,,,0.00,weatherlink.com 1.10,2013-02-22 21:16:00,
2013-02-22 14:31:00,40.1,9.0,29.94,WSW,252,15.0,21.0,28,0.00,,,0.00,weatherlink.com 1.10,2013-02-22 21:31:00,
2013-02-22 14:46:00,40.4,9.0,29.93,SW,222,11.0,21.0,27,0.00,,,0.00,weatherlink.com 1.10,2013-02-22 21:46:00,
2013-02-22 15:01:00,40.7,10.0,29.92,WSW,243,9.0,20.0,28,0.00,,,0.00,weatherlink.com 1.10,2013-02-22 22:01:00,
2013-02-22 15:16:00,40.1,10.0,29.91,SSW,207,14.0,33.0,29,0.01,,,0.01,weatherlink.com 1.10,2013-02-22 22:16:00,
2013-02-22 15:31:00,40.5,10.0,29.91,SW,233,13.0,22.0,28,0.01,,,0.01,weatherlink.com 1.10,2013-02-22 22:31:00,
2013-02-22 15:46:00,40.5,10.0,29.91,WSW,238,13.0,15.0,28,0.01,,,0.01,weatherlink.com 1.10,2013-02-22 22:46:00,
2013-02-22 16:01:00,39.8,10.0,29.91,SW,235,18.0,21.0,29,0.01,,,0.01,weatherlink.com 1.10,2013-02-22 23:01:00,
2013-02-22 16:16:00,39.7,10.0,29.91,WSW,238,20.0,22.0,29,0.00,,,0.01,weatherlink.com 1.10,2013-02-22 23:16:00,
2013-02-22 16:31:00,39.4,9.0,29.92,West,266,9.0,25.0,29,0.00,,,0.01,weatherlink.com 1.10,2013-02-22 23:31:00,
2013-02-22 16:46:00,38.9,9.0,29.91,West,259,16.0,31.0,29,0.00,,,0.01,weatherlink.com 1.10,2013-02-22 23:46:00,
2013-02-22 17:01:00,38.2,10.0,29.91,WSW,258,11.0,20.0,31,0.00,,,0.01,weatherlink.com 1.10,2013-02-23 00:01:00,
2013-02-22 17:16:00,37.0,10.0,29.91,WSW,237,13.0,27.0,33,0.00,,,0.01,weatherlink.com 1.10,2013-02-23 00:16:00,
2013-02-22 17:31:00,36.3,11.0,29.90,SSW,213,18.0,26.0,35,0.00,,,0.01,weatherlink.com 1.10,2013-02-23 00:31:00,
2013-02-22 17:46:00,36.1,11.0,29.89,WSW,239,21.0,26.0,35,0.00,,,0.01,weatherlink.com 1.10,2013-02-23 00:46:00,
2013-02-22 18:01:00,36.5,9.0,29.87,WSW,257,25.0,38.0,32,0.00,,,0.01,weatherlink.com 1.10,2013-02-23 01:01:00,
2013-02-22 18:16:00,36.1,9.0,29.86,WSW,248,28.0,33.0,32,0.00,,,0.01,weatherlink.com 1.10,2013-02-23 01:16:00,
2013-02-22 18:31:00,36.0,10.0,29.85,WSW,238,24.0,33.0,34,0.00,,,0.01,weatherlink.com 1.10,2013-02-23 01:31:00,
2013-02-22 18:46:00,36.2,8.0,29.85,WSW,247,35.0,37.0,31,0.00,,,0.01,weatherlink.com 1.10,2013-02-23 01:46:00,
2013-02-22 19:01:00,36.4,8.0,29.84,West,267,25.0,38.0,31,0.00,,,0.01,weatherlink.com 1.10,2013-02-23 02:01:00,
2013-02-22 19:16:00,35.7,10.0,29.84,WSW,258,12.0,33.0,34,0.00,,,0.01,weatherlink.com 1.10,2013-02-23 02:16:00,
2013-02-22 19:31:00,29.7,16.0,29.85,North,360,7.0,15.0,58,0.00,,,0.01,weatherlink.com 1.10,2013-02-23 02:31:00,
2013-02-22 19:47:00,29.5,17.0,29.86,WNW,300,5.0,14.0,60,0.00,,,0.01,weatherlink.com 1.10,2013-02-23 02:47:00,
2013-02-22 20:01:00,36.1,9.0,29.84,West,259,24.0,38.0,33,0.00,,,0.01,weatherlink.com 1.10,2013-02-23 03:01:00,
2013-02-22 20:16:00,31.9,14.0,29.85,WNW,298,11.0,21.0,48,0.00,,,0.01,weatherlink.com 1.10,2013-02-23 03:16:00,
2013-02-22 20:31:00,36.0,9.0,29.84,WSW,252,23.0,37.0,32,0.00,,,0.01,weatherlink.com 1.10,2013-02-23 03:31:00,
2013-02-22 20:46:00,36.5,9.0,29.84,West,266,19.0,37.0,32,0.00,,,0.01,weatherlink.com 1.10,2013-02-23 03:46:00,
2013-02-22 21:01:00,30.7,14.0,29.84,West,269,12.0,24.0,51,0.00,,,0.01,weatherlink.com 1.10,2013-02-23 04:01:00,
2013-02-22 21:16:00,35.9,11.0,29.84,WNW,286,19.0,32.0,35,0.00,,,0.01,weatherlink.com 1.10,2013-02-23 04:16:00,
2013-02-22 21:31:00,31.8,14.0,29.84,WNW,294,13.0,22.0,47,0.00,,,0.01,weatherlink.com 1.10,2013-02-23 04:31:00,
2013-02-22 21:46:00,35.4,13.0,29.82,WSW,256,22.0,40.0,39,0.00,,,0.01,weatherlink.com 1.10,2013-02-23 04:46:00,
2013-02-22 22:01:00,30.7,15.0,29.82,West,262,20.0,31.0,53,0.00,,,0.01,weatherlink.com 1.10,2013-02-23 05:01:00,
2013-02-22 22:17:00,38.6,13.0,29.81,WSW,251,24.0,37.0,35,0.00,,,0.01,weatherlink.com 1.10,2013-02-23 05:17:00,
2013-02-22 22:31:00,36.9,13.0,29.79,West,279,7.0,34.0,37,0.00,,,0.01,weatherlink.com 1.10,2013-02-23 05:31:00,
2013-02-22 22:46:00,36.9,14.0,29.78,NNW,348,15.0,32.0,39,0.00,,,0.01,weatherlink.com 1.10,2013-02-23 05:46:00,
2013-02-22 23:01:00,31.6,13.0,29.79,West,265,7.0,29.0,47,0.00,,,0.01,weatherlink.com 1.10,2013-02-23 06:01:00,
2013-02-22 23:16:00,35.6,13.0,29.79,WSW,246,21.0,27.0,40,0.00,,,0.01,weatherlink.com 1.10,2013-02-23 06:16:00,
2013-02-22 23:31:00,32.0,14.0,29.79,WNW,284,4.0,23.0,47,0.00,,,0.01,weatherlink.com 1.10,2013-02-23 06:31:00,
2013-02-22 23:46:00,29.2,14.0,29.80,West,273,6.0,14.0,53,0.00,,,0.01,weatherlink.com 1.10,2013-02-23 06:46:00,